Find Starlink 30375

NORAD ID: 57732 Int'l Des: 2023-131 Owner: SPXS Country: US Constellation: starlink operational
LEOCIRCULAR

Live Position

Loading 3D Globe...

About Starlink 30375

Description loading...

Upcoming Passes

Passes for default location (London). Set your location on the main map for personalized predictions.

Altitude History

Loading altitude history...

Two-Line Element Set

1 57732U 23131A 26133.04805368 -.00000094 00000-0 61044-5 0 9997
2 57732 43.0039 154.1385 0001477 274.9441 85.1242 15.27569833149940
Epoch: May 13, 2026 • Age: 9 hours

Current Status

Altitude 487.0 km
Velocity 7.62 km/s
Sub-Earth Point -20.18°S, 101.13°E
Launch Date Sep 1, 2023
Age 2.6 years
Type internet

Technical Details

Classification Payload
Mass 730.00 kg
Dry Mass 700.00 kg
Total Mass 730.00 kg
Length 0.30 m
Diameter 4.10 m
Span 29.00 m
Shape Box + pan
Manufacturer SPXS
Bus Type Starlink V2M
Phase Status In Orbit
Owner/State SPXS/US

Most Searched